Location: Duac?
(36.9744°N, 30.6500°E)
Time: 06:24:27
(UTC+00:00)

CARTOSAT-1 - Pass Details

Date: 05 August 2024
Orbit: 603 x 607 km, 97.6° (Epoch: 10 September)

Event Time Altitude Azimuth Distance (km) Brightness Sun altitude
Exits shadow 17:39:39 - 160° (SSE) 2,654 6.4 -8.0°
Reaches altitude 10° 17:41:21 10° 158° (SSE) 1,955 5.7 -8.3°
Maximum altitude 17:45:34 68° 76° (ENE) 660 3.5 -9.1°
Drops below altitude 10° 17:49:49 10° 354° (N) 1,968 6.7 -9.8°
Sets 17:52:00 0° 352° (N) 2,875 7.6 -10.2°
